Weather observations for the past three days for
Hagerstown, Washington County Regional Airport
Imperial (Metric)
Date Time (edt) Wind (mph) Vis. (mi.) Weather Sky Cond. Temperature (ºF) Relative Humidity Wind Chill (°F) Heat Index (°F) Pressure Precipitation (in)
Air Dwpt 6 hour altimeter (in) sea level (mb) 1 hr 3 hr 6 hr
Max. Min.
16 10:53 S 10 G 22 10.00 Fair CLR 91 69.1 49% 96 29.85 1011.0
16 09:53 S 8 10.00 Fair CLR 89.1 68 50% 93 29.86 1011.3
16 08:53 S 7 10.00 Fair CLR 84 68 59% 87 29.87 1011.5
16 07:53 S 7 10.00 Fair CLR 82 66.9 82.9 75.9 60% 85 29.88 1011.9
16 06:53 S 6 10.00 Fair CLR 79 66.9 67% 81 29.88 1011.8
16 05:53 S 5 10.00 Fair CLR 78.1 66 67% 80 29.86 1011.3
16 04:53 SE 5 10.00 Fair CLR 79 66 65% 81 29.85 1011.0
16 03:53 SW 6 10.00 Fair CLR 82.9 64 53% 84 29.84 1010.5
16 02:53 S 6 10.00 Fair CLR 81 66 61% 83 29.85 1010.8
16 01:53 SW 6 10.00 Fair CLR 81 66.9 88 80.1 62% 83 29.85 1010.8
16 00:53 S 7 10.00 Fair CLR 82.9 66.9 59% 86 29.84 1010.6
15 23:53 S 8 10.00 Fair CLR 84 66.9 57% 87 29.83 1010.4
15 22:53 S 9 10.00 Fair CLR 84 66.9 57% 87 29.85 1010.9
15 21:53 S 9 10.00 Fair CLR 82.9 68 61% 86 29.86 1011.1
15 20:53 S 8 10.00 Fair CLR 86 69.1 57% 90 29.84 1010.7
15 19:53 S 10 10.00 A Few Clouds FEW110 88 69.1 100 84.9 54% 92 29.83 1010.3
15 18:53 S 12 10.00 A Few Clouds FEW110 90 69.1 50% 95 29.82 1010.0
15 17:53 S 20 G 31 10.00 Partly Cloudy SCT110 93 66 41% 96 29.81 1009.6
15 16:53 W 9 10.00 Partly Cloudy SCT055CB 99 60.1 28% 99 29.82 1009.8
15 15:53 S 8 10.00 Partly Cloudy FEW037 SCT080 97 63 33% 99 29.85 1011.0
15 14:53 W 8 10.00 Partly Cloudy SCT070 98.1 64.9 34% 101 29.88 1012.0
15 13:53 W 9 G 17 10.00 Partly Cloudy SCT070 95 66 96.1 81 39% 98 29.91 1012.9
15 12:53 S 8 10.00 A Few Clouds FEW050 93 66.9 42% 97 29.93 1013.5
15 11:53 W 8 10.00 Fair CLR 90 69.1 50% 95 29.95 1014.3
15 10:53 W 10 10.00 Fair CLR 88 68 52% 92 29.96 1014.8
15 09:53 SW 7 10.00 Fair CLR 84.9 66 53% 87 29.98 1015.3
15 08:53 SW 10 10.00 Fair CLR 82.9 66 57% 85 29.99 1015.6
15 07:53 W 6 10.00 Fair CLR 81 66 81 78.1 61% 83 29.98 1015.5
15 06:53 SW 6 10.00 Fair CLR 80.1 64.9 60% 82 29.97 1014.9
15 05:53 SW 5 10.00 Mostly Cloudy BKN110 80.1 64 58% 82 29.97 1014.9
15 04:53 SW 6 10.00 A Few Clouds FEW120 80.1 64 58% 82 29.95 1014.5
15 03:53 W 6 10.00 Fair CLR 80.1 63 56% 81 29.94 1013.8
15 02:53 Calm 10.00 Fair CLR 79 66 65% 81 29.93 1013.6
15 01:53 Calm 10.00 Fair CLR 81 66 93 80.1 61% 83 29.93 1013.7
15 00:53 S 5 10.00 Fair CLR 82 66 58% 84 29.94 1013.9
14 23:53 S 6 10.00 Fair CLR 82.9 66 57% 85 29.94 1013.9
14 22:53 S 6 10.00 Fair CLR 84 66.9 57% 87 29.94 1013.9
14 21:53 S 5 10.00 Fair CLR 88 66 48% 90 29.94 1014.0
14 20:53 S 9 10.00 Fair CLR 89.1 66 47% 92 29.94 1014.1
14 19:53 S 7 10.00 Fair CLR 91.9 64 96.1 91.9 40% 94 29.95 1014.3
14 18:53 S 6 10.00 Fair CLR 95 64.9 37% 98 29.95 1014.3
14 17:53 S 7 10.00 Fair CLR 96.1 64 35% 98 29.94 1014.1
14 16:53 E 8 10.00 A Few Clouds FEW085 95 63 35% 96 29.96 1014.6
14 15:53 Calm 10.00 Partly Cloudy SCT080 96.1 62.1 32% 97 29.96 1014.8
14 14:53 S 7 10.00 Mostly Cloudy BKN090 93.9 62.1 35% 95 30 1016.1
14 13:53 W 8 10.00 Fair CLR 93.9 66 93.9 77 40% 97 30.02 1016.6
14 12:53 Calm 10.00 A Few Clouds FEW100 93 66.9 42% 97 30.06 1018.0
14 11:53 N 5 10.00 Fair CLR 90 69.1 50% 95 30.07 1018.4
14 10:53 S 5 10.00 Fair CLR 84.9 69.1 59% 89 30.08 1018.7
14 09:53 SW 8 10.00 Fair CLR 82.9 69.1 63% 87 30.08 1018.8
14 08:53 SW 3 10.00 Mostly Cloudy BKN090 80.1 72 76% 84 30.09 1019.1
14 07:53 SW 3 10.00 Fair CLR 77 72 80.1 75.9 85% 78 30.08 1019.0
14 06:53 SW 5 10.00 Fair CLR 75.9 71.1 85% 76 30.07 1018.5
14 05:53 SE 3 10.00 Fair CLR 77 70 79% 79 30.07 1018.4
14 04:53 Calm 10.00 Fair CLR 75.9 71.1 85% 76 30.07 1018.5
14 03:53 Calm 10.00 A Few Clouds FEW120 79 71.1 77% 82 30.07 1018.4
14 02:53 SE 3 10.00 Mostly Cloudy BKN120 80.1 71.1 74% 84 30.07 1018.5
14 01:53 E 6 10.00 Mostly Cloudy FEW090 BKN110 80.1 71.1 88 80.1 74% 84 30.09 1018.9
14 00:53 S 3 10.00 Overcast BKN090 OVC110 82 71.1 69% 86 30.1 1019.3
13 23:53 NW 6 10.00 Overcast OVC090 81 71.1 72% 85 30.11 1019.9
13 22:53 SE 3 10.00 Mostly Cloudy BKN100 84 70 63% 88 30.1 1019.7
13 21:53 SE 5 10.00 A Few Clouds FEW080 84.9 71.1 63% 90 30.1 1019.6
13 20:53 SE 6 10.00 Mostly Cloudy BKN100 BKN120 87.1 71.1 59% 93 30.09 1019.2
13 19:53 SE 7 10.00 A Few Clouds FEW100 88 71.1 93 88 57% 94 30.09 1019.3
13 18:53 E 6 10.00 Mostly Cloudy SCT090 BKN110 90 69.1 50% 95 30.08 1018.9
13 17:53 S 5 10.00 Partly Cloudy SCT100 91 64.9 42% 93 30.08 1018.8
13 16:53 S 5 10.00 Overcast BKN100 OVC120 91 64.9 42% 93 30.09 1019.1
13 15:53 E 6 10.00 A Few Clouds FEW120 91 66.9 45% 94 30.1 1019.5
13 14:53 NE 7 10.00 A Few Clouds FEW055 90 69.1 50% 95 30.11 1020.0
13 13:53 SE 6 10.00 Fair CLR 89.1 70 90 75 53% 94 30.13 1020.5
13 12:53 NE 7 10.00 A Few Clouds FEW034 86 71.1 61% 92 30.16 1021.4
13 11:53 NE 3 10.00 Partly Cloudy SCT027 84.9 70 61% 89 30.17 1021.8
Date Time (edt) Wind (mph) Vis. (mi.) Weather Sky Cond. Air Dwpt Max. Min. Relative Humidity Wind Chill (°F) Heat Index (°F) altimeter (in) sea level (mb) 1 hr 3 hr 6 hr
6 hour
Temperature (ºF) Pressure Precipitation (in)